This demonstration page uses our WeatherBlox Daily Observations layout. Learn more.

Left ArrowRight Arrow

53.62937, 11.41316

Hourly Observations for April 10, 2021

Temp ( °F °C ) Dew Point ( °F °C ) Humidity (%) Winds ( mph kmh ) Pressure ( in mb ) Visibility ( mi km ) Precip ( " mm )
7:50 am 07:50 Mostly Sunny 37 3 36 2 93 93 Calm 29.98 1015 7 11 N/A
8:20 am 08:20 Mostly Sunny 39 4 34 1 81 81 Calm 29.98 1015 7 11 N/A
8:50 am 08:50 Mostly Sunny 39 4 34 1 81 81 VRB 1 2 29.98 1015 7 11 N/A
9:20 am 09:20 Mostly Sunny 41 5 32 0 70 70 VRB 2 4 30.00 1016 7 11 N/A
9:50 am 09:50 Mostly Sunny 41 5 30 -1 66 66 VRB 2 4 30.00 1016 7 11 N/A
10:20 am 10:20 Mostly Sunny 43 6 30 -1 61 61 VRB 2 4 30.00 1016 30 48 N/A
10:50 am 10:50 Mostly Sunny 43 6 27 -3 53 53 VRB 5 7 30.00 1016 30 48 N/A
11:20 am 11:20 Mostly Sunny 43 6 25 -4 49 49 VRB 3 6 30.00 1016 30 48 N/A
11:50 am 11:50 Mostly Sunny 45 7 25 -4 46 46 VRB 2 4 30.03 1017 30 48 N/A
12:20 pm 12:20 Mostly Sunny 45 7 21 -6 39 39 VRB 2 4 30.03 1017 30 48 N/A
12:50 pm 12:50 Mostly Sunny 45 7 23 -5 42 42 ENE 5 7 30.03 1017 7 11 N/A
1:20 pm 13:20 Mostly Sunny 46 8 25 -4 43 43 VRB 3 6 30.03 1017 7 11 N/A
1:50 pm 13:50 Mostly Sunny 48 9 25 -4 40 40 VRB 3 6 30.03 1017 7 11 N/A
2:20 pm 14:20 Mostly Sunny 48 9 21 -6 34 34 VRB 6 9 30.03 1017 7 11 N/A
2:50 pm 14:50 Mostly Sunny 50 10 21 -6 32 32 VRB 2 4 30.03 1017 7 11 N/A
3:20 pm 15:20 Mostly Sunny 50 10 23 -5 35 35 NNW 5 7 30.00 1016 7 11 N/A
3:50 pm 15:50 Mostly Sunny 48 9 23 -5 37 37 SE 6 9 30.00 1016 7 11 N/A
4:20 pm 16:20 Mostly Sunny 48 9 25 -4 40 40 SE 6 9 30.00 1016 7 11 N/A
4:50 pm 16:50 Mostly Sunny 48 9 23 -5 37 37 VRB 5 7 30.00 1016 7 11 N/A
5:20 pm 17:20 Mostly Sunny 48 9 21 -6 34 34 E 6 9 30.00 1016 7 11 N/A
5:50 pm 17:50 Mostly Sunny 48 9 23 -5 37 37 E 8 13 30.00 1016 7 11 N/A
6:20 pm 18:20 Mostly Sunny 46 8 27 -3 46 46 E 9 15 30.00 1016 7 11 N/A
6:50 pm 18:50 Mostly Sunny 46 8 27 -3 46 46 ENE 10 17 29.97 1015 7 11 N/A
7:20 pm 19:20 Mostly Sunny 45 7 27 -3 49 49 ENE 10 17 29.97 1015 7 11 N/A
7:50 pm 19:50 Mostly Sunny 43 6 25 -4 49 49 ENE 10 17 29.97 1015 7 11 N/A
8:20 pm 20:20 Mostly Clear 43 6 25 -4 49 49 ENE 12 19 29.97 1015 7 11 N/A
8:50 pm 20:50 Mostly Clear 41 5 25 -4 53 53 ENE 10 17 29.98 1015 30 48 N/A

Powered by AerisWeather